contact:dominique.lefevre@mio.osupytheas.fr, maurice.libes@osupytheas.fr, didier.mallarino@osupytheas.fr
Project:EMSO http://www.emso-fr.org/EMSO-France
Depth: 2436.0 m
Title:EMSO Ligure Ouest : Data MII capteur MICROCAT
DateTime_Computer,Latitude,Longitude,Temperature,Conductivity,Pressure,DateTime_Instrument
DateTime_Computer,Latitude,Longitude,degC,S m-1,dbar,DateTime_Instrument
2022-11-16T00:01:18Z,42.805,6.029,13.3058,4.60098,2470.624,2022-11-16T02:03:16Z
2022-11-16T00:04:21Z,42.805,6.029,13.3073,4.60155,2470.624,2022-11-16T02:06:19Z
2022-11-16T00:07:24Z,42.805,6.029,13.3077,4.60129,2470.661,2022-11-16T02:09:22Z
2022-11-16T00:10:27Z,42.805,6.029,13.3055,4.60119,2470.624,2022-11-16T02:12:25Z
2022-11-16T00:13:30Z,42.805,6.029,13.3060,4.60137,2470.637,2022-11-16T02:15:28Z
2022-11-16T00:16:33Z,42.805,6.029,13.3060,4.60127,2470.614,2022-11-16T02:18:31Z
2022-11-16T00:19:36Z,42.805,6.029,13.3075,4.60112,2470.661,2022-11-16T02:21:34Z
2022-11-16T00:22:39Z,42.805,6.029,13.3048,4.60127,2470.684,2022-11-16T02:24:37Z
2022-11-16T00:25:42Z,42.805,6.029,13.3036,4.60159,2470.637,2022-11-16T02:27:40Z
2022-11-16T00:28:45Z,42.805,6.029,13.3049,4.60139,2470.6,2022-11-16T02:30:43Z
2022-11-16T00:31:48Z,42.805,6.029,13.3067,4.60108,2470.646,2022-11-16T02:33:47Z
2022-11-16T00:34:51Z,42.805,6.029,13.3055,4.60121,2470.6,2022-11-16T02:36:50Z
2022-11-16T00:37:54Z,42.805,6.029,13.3067,4.60154,2470.614,2022-11-16T02:39:53Z
2022-11-16T00:40:58Z,42.805,6.029,13.3082,4.60144,2470.661,2022-11-16T02:42:56Z
2022-11-16T00:44:01Z,42.805,6.029,13.3077,4.60162,2470.624,2022-11-16T02:45:59Z
2022-11-16T00:47:04Z,42.805,6.029,13.3085,4.60167,2470.614,2022-11-16T02:49:02Z
2022-11-16T00:50:07Z,42.805,6.029,13.3095,4.60128,2470.6,2022-11-16T02:52:05Z
2022-11-16T00:53:10Z,42.805,6.029,13.3098,4.60132,2470.6,2022-11-16T02:55:08Z
2022-11-16T00:56:13Z,42.805,6.029,13.3105,4.60099,2470.637,2022-11-16T02:58:11Z
2022-11-16T00:59:16Z,42.805,6.029,13.3091,4.60096,2470.614,2022-11-16T03:01:14Z
2022-11-16T01:02:19Z,42.805,6.029,13.3096,4.60119,2470.6,2022-11-16T03:04:17Z
2022-11-16T01:05:22Z,42.805,6.029,13.3070,4.60114,2470.624,2022-11-16T03:07:20Z
2022-11-16T01:08:25Z,42.805,6.029,13.3076,4.60125,2470.624,2022-11-16T03:10:23Z
2022-11-16T01:11:28Z,42.805,6.029,13.3052,4.60098,2470.624,2022-11-16T03:13:27Z
2022-11-16T01:14:31Z,42.805,6.029,13.3058,4.60128,2470.614,2022-11-16T03:16:30Z
2022-11-16T01:17:34Z,42.805,6.029,13.3062,4.60137,2470.6,2022-11-16T03:19:33Z
2022-11-16T01:20:38Z,42.805,6.029,13.3063,4.60104,2470.614,2022-11-16T03:22:36Z
2022-11-16T01:23:41Z,42.805,6.029,13.3094,4.60092,2470.624,2022-11-16T03:25:39Z
2022-11-16T01:26:44Z,42.805,6.029,13.3079,4.60093,2470.6,2022-11-16T03:28:42Z
2022-11-16T01:29:47Z,42.805,6.029,13.3073,4.60099,2470.661,2022-11-16T03:31:45Z
2022-11-16T01:32:50Z,42.805,6.029,13.3084,4.60112,2470.6,2022-11-16T03:34:48Z
2022-11-16T01:35:53Z,42.805,6.029,13.3082,4.60103,2470.6,2022-11-16T03:37:51Z
2022-11-16T01:38:56Z,42.805,6.029,13.3076,4.60104,2470.6,2022-11-16T03:40:54Z
2022-11-16T01:41:59Z,42.805,6.029,13.3039,4.60094,2470.614,2022-11-16T03:43:57Z
2022-11-16T01:45:02Z,42.805,6.029,13.3047,4.60100,2470.6,2022-11-16T03:47:00Z
2022-11-16T01:48:05Z,42.805,6.029,13.3054,4.60117,2470.624,2022-11-16T03:50:04Z
2022-11-16T01:51:08Z,42.805,6.029,13.3056,4.60074,2470.6,2022-11-16T03:53:07Z
2022-11-16T01:54:11Z,42.805,6.029,13.3052,4.60079,2470.614,2022-11-16T03:56:10Z
2022-11-16T01:57:15Z,42.805,6.029,13.3052,4.60088,2470.591,2022-11-16T03:59:13Z
2022-11-16T02:00:18Z,42.805,6.029,13.3063,4.60102,2470.577,2022-11-16T04:02:16Z
2022-11-16T02:03:21Z,42.805,6.029,13.3055,4.60086,2470.614,2022-11-16T04:05:19Z
2022-11-16T02:06:24Z,42.805,6.029,13.3069,4.60096,2470.591,2022-11-16T04:08:22Z
2022-11-16T02:09:27Z,42.805,6.029,13.3054,4.60092,2470.577,2022-11-16T04:11:25Z
2022-11-16T02:12:30Z,42.805,6.029,13.3038,4.60082,2470.6,2022-11-16T04:14:28Z
2022-11-16T02:15:33Z,42.805,6.029,13.3046,4.60079,2470.6,2022-11-16T04:17:31Z
2022-11-16T02:18:36Z,42.805,6.029,13.3065,4.60104,2470.567,2022-11-16T04:20:34Z
2022-11-16T02:21:39Z,42.805,6.029,13.3053,4.60098,2470.614,2022-11-16T04:23:37Z
2022-11-16T02:24:42Z,42.805,6.029,13.3046,4.60084,2470.577,2022-11-16T04:26:40Z
2022-11-16T02:27:45Z,42.805,6.029,13.3036,4.60103,2470.614,2022-11-16T04:29:44Z
2022-11-16T02:30:48Z,42.805,6.029,13.3041,4.60081,2470.6,2022-11-16T04:32:47Z
2022-11-16T02:33:51Z,42.805,6.029,13.3053,4.60074,2470.591,2022-11-16T04:35:50Z
2022-11-16T02:36:55Z,42.805,6.029,13.3043,4.60093,2470.6,2022-11-16T04:38:53Z
2022-11-16T02:39:58Z,42.805,6.029,13.3046,4.60094,2470.6,2022-11-16T04:41:56Z
2022-11-16T02:43:01Z,42.805,6.029,13.3043,4.60080,2470.577,2022-11-16T04:44:59Z
2022-11-16T02:46:04Z,42.805,6.029,13.3043,4.60096,2470.6,2022-11-16T04:48:02Z
2022-11-16T02:49:07Z,42.805,6.029,13.3033,4.60112,2470.604,2022-11-16T04:51:05Z
2022-11-16T02:52:10Z,42.805,6.029,13.3041,4.60094,2470.614,2022-11-16T04:54:08Z
2022-11-16T02:55:13Z,42.805,6.029,13.3043,4.60095,2470.6,2022-11-16T04:57:11Z
2022-11-16T02:58:16Z,42.805,6.029,13.3046,4.60081,2470.591,2022-11-16T05:00:14Z
2022-11-16T03:01:19Z,42.805,6.029,13.3066,4.60092,2470.6,2022-11-16T05:03:17Z
2022-11-16T03:04:22Z,42.805,6.029,13.3073,4.60087,2470.6,2022-11-16T05:06:20Z
2022-11-16T03:07:25Z,42.805,6.029,13.3070,4.60081,2470.614,2022-11-16T05:09:24Z
2022-11-16T03:10:28Z,42.805,6.029,13.3076,4.60099,2470.577,2022-11-16T05:12:27Z
2022-11-16T03:13:31Z,42.805,6.029,13.3062,4.60081,2470.591,2022-11-16T05:15:30Z
2022-11-16T03:16:34Z,42.805,6.029,13.3050,4.60088,2470.637,2022-11-16T05:18:33Z
2022-11-16T03:19:38Z,42.805,6.029,13.3080,4.60091,2470.6,2022-11-16T05:21:36Z
2022-11-16T03:22:41Z,42.805,6.029,13.3059,4.60089,2470.553,2022-11-16T05:24:39Z
2022-11-16T03:25:44Z,42.805,6.029,13.3053,4.60097,2470.577,2022-11-16T05:27:42Z
2022-11-16T03:28:47Z,42.805,6.029,13.3061,4.60102,2470.591,2022-11-16T05:30:45Z
2022-11-16T03:31:50Z,42.805,6.029,13.3068,4.60095,2470.6,2022-11-16T05:33:48Z
2022-11-16T03:34:53Z,42.805,6.029,13.3084,4.60091,2470.614,2022-11-16T05:36:51Z
2022-11-16T03:37:56Z,42.805,6.029,13.3096,4.60096,2470.577,2022-11-16T05:39:54Z
2022-11-16T03:40:59Z,42.805,6.029,13.3075,4.60090,2470.591,2022-11-16T05:42:57Z
2022-11-16T03:44:02Z,42.805,6.029,13.3069,4.60101,2470.591,2022-11-16T05:46:00Z
2022-11-16T03:47:05Z,42.805,6.029,13.3075,4.60092,2470.577,2022-11-16T05:49:04Z
2022-11-16T03:50:08Z,42.805,6.029,13.3070,4.60097,2470.591,2022-11-16T05:52:07Z
2022-11-16T03:53:11Z,42.805,6.029,13.3085,4.60107,2470.567,2022-11-16T05:55:10Z
2022-11-16T03:56:15Z,42.805,6.029,13.3070,4.60092,2470.614,2022-11-16T05:58:13Z
2022-11-16T03:59:18Z,42.805,6.029,13.3073,4.60092,2470.591,2022-11-16T06:01:16Z
2022-11-16T04:02:21Z,42.805,6.029,13.3067,4.60092,2470.614,2022-11-16T06:04:19Z
2022-11-16T04:05:24Z,42.805,6.029,13.3063,4.60102,2470.567,2022-11-16T06:07:22Z
2022-11-16T04:08:27Z,42.805,6.029,13.3063,4.60116,2470.577,2022-11-16T06:10:25Z
2022-11-16T04:11:30Z,42.805,6.029,13.3069,4.60104,2470.591,2022-11-16T06:13:28Z
2022-11-16T04:14:33Z,42.805,6.029,13.3061,4.60109,2470.624,2022-11-16T06:16:31Z
2022-11-16T04:17:36Z,42.805,6.029,13.3072,4.60089,2470.577,2022-11-16T06:19:34Z
2022-11-16T04:20:39Z,42.805,6.029,13.3068,4.60092,2470.577,2022-11-16T06:22:37Z
2022-11-16T04:23:42Z,42.805,6.029,13.3082,4.60097,2470.591,2022-11-16T06:25:41Z
2022-11-16T04:26:45Z,42.805,6.029,13.3081,4.60100,2470.6,2022-11-16T06:28:44Z
2022-11-16T04:29:48Z,42.805,6.029,13.3050,4.60101,2470.567,2022-11-16T06:31:47Z
2022-11-16T04:32:51Z,42.805,6.029,13.3063,4.60085,2470.614,2022-11-16T06:34:50Z
2022-11-16T04:35:55Z,42.805,6.029,13.3056,4.60097,2470.577,2022-11-16T06:37:53Z
2022-11-16T04:38:58Z,42.805,6.029,13.3053,4.60092,2470.6,2022-11-16T06:40:56Z
2022-11-16T04:42:01Z,42.805,6.029,13.3062,4.60085,2470.637,2022-11-16T06:43:59Z
2022-11-16T04:45:04Z,42.805,6.029,13.3066,4.60092,2470.577,2022-11-16T06:47:02Z
2022-11-16T04:48:07Z,42.805,6.029,13.3056,4.60088,2470.591,2022-11-16T06:50:05Z
2022-11-16T04:51:10Z,42.805,6.029,13.3067,4.60086,2470.591,2022-11-16T06:53:08Z
2022-11-16T04:54:13Z,42.805,6.029,13.3068,4.60102,2470.553,2022-11-16T06:56:11Z
2022-11-16T04:57:16Z,42.805,6.029,13.3063,4.60092,2470.591,2022-11-16T06:59:14Z
2022-11-16T05:00:19Z,42.805,6.029,13.3064,4.60089,2470.591,2022-11-16T07:02:17Z
2022-11-16T05:03:22Z,42.805,6.029,13.3067,4.60093,2470.577,2022-11-16T07:05:21Z
2022-11-16T05:06:25Z,42.805,6.029,13.3078,4.60098,2470.577,2022-11-16T07:08:24Z
2022-11-16T05:09:28Z,42.805,6.029,13.3089,4.60100,2470.553,2022-11-16T07:11:27Z
2022-11-16T05:12:32Z,42.805,6.029,13.3069,4.60084,2470.591,2022-11-16T07:14:30Z
2022-11-16T05:15:35Z,42.805,6.029,13.3063,4.60094,2470.591,2022-11-16T07:17:33Z
2022-11-16T05:18:38Z,42.805,6.029,13.3061,4.60092,2470.577,2022-11-16T07:20:36Z
2022-11-16T05:21:41Z,42.805,6.029,13.3060,4.60097,2470.567,2022-11-16T07:23:39Z
2022-11-16T05:24:44Z,42.805,6.029,13.3060,4.60101,2470.567,2022-11-16T07:26:42Z
2022-11-16T05:27:47Z,42.805,6.029,13.3082,4.60092,2470.567,2022-11-16T07:29:45Z
2022-11-16T05:30:50Z,42.805,6.029,13.3084,4.60095,2470.577,2022-11-16T07:32:48Z
2022-11-16T05:33:53Z,42.805,6.029,13.3091,4.60079,2470.553,2022-11-16T07:35:51Z
2022-11-16T05:36:56Z,42.805,6.029,13.3081,4.60085,2470.567,2022-11-16T07:38:54Z
2022-11-16T05:39:59Z,42.805,6.029,13.3073,4.60092,2470.567,2022-11-16T07:41:57Z
2022-11-16T05:43:02Z,42.805,6.029,13.3081,4.60098,2470.591,2022-11-16T07:45:01Z
2022-11-16T05:46:05Z,42.805,6.029,13.3062,4.60092,2470.591,2022-11-16T07:48:04Z
2022-11-16T05:49:08Z,42.805,6.029,13.3079,4.60084,2470.567,2022-11-16T07:51:07Z
2022-11-16T05:52:12Z,42.805,6.029,13.3089,4.60106,2470.591,2022-11-16T07:54:10Z
2022-11-16T05:55:15Z,42.805,6.029,13.3085,4.60079,2470.591,2022-11-16T07:57:13Z
2022-11-16T05:58:18Z,42.805,6.029,13.3089,4.60081,2470.567,2022-11-16T08:00:16Z
2022-11-16T06:01:21Z,42.805,6.029,13.3061,4.60087,2470.553,2022-11-16T08:03:19Z
2022-11-16T06:04:24Z,42.805,6.029,13.3073,4.60109,2470.53,2022-11-16T08:06:22Z
2022-11-16T06:07:27Z,42.805,6.029,13.3061,4.60097,2470.567,2022-11-16T08:09:25Z
2022-11-16T06:10:30Z,42.805,6.029,13.3043,4.60099,2470.553,2022-11-16T08:12:28Z
2022-11-16T06:13:33Z,42.805,6.029,13.3065,4.60102,2470.567,2022-11-16T08:15:31Z
2022-11-16T06:16:36Z,42.805,6.029,13.3063,4.60105,2470.577,2022-11-16T08:18:34Z
2022-11-16T06:19:39Z,42.805,6.029,13.3083,4.60096,2470.614,2022-11-16T08:21:37Z
2022-11-16T06:22:42Z,42.805,6.029,13.3060,4.60085,2470.577,2022-11-16T08:24:41Z
2022-11-16T06:25:45Z,42.805,6.029,13.3053,4.60096,2470.567,2022-11-16T08:27:44Z
2022-11-16T06:28:48Z,42.805,6.029,13.3059,4.60092,2470.577,2022-11-16T08:30:47Z
2022-11-16T06:31:52Z,42.805,6.029,13.3048,4.60092,2470.544,2022-11-16T08:33:50Z
2022-11-16T06:34:55Z,42.805,6.029,13.3065,4.60092,2470.567,2022-11-16T08:36:53Z
2022-11-16T06:37:58Z,42.805,6.029,13.3053,4.60102,2470.591,2022-11-16T08:39:56Z
2022-11-16T06:41:01Z,42.805,6.029,13.3056,4.60108,2470.553,2022-11-16T08:42:59Z
2022-11-16T06:44:04Z,42.805,6.029,13.3063,4.60091,2470.553,2022-11-16T08:46:02Z
2022-11-16T06:47:07Z,42.805,6.029,13.3055,4.60107,2470.577,2022-11-16T08:49:05Z
2022-11-16T06:50:10Z,42.805,6.029,13.3076,4.60094,2470.553,2022-11-16T08:52:08Z
2022-11-16T06:53:13Z,42.805,6.029,13.3069,4.60114,2470.577,2022-11-16T08:55:11Z
2022-11-16T06:56:16Z,42.805,6.029,13.3063,4.60101,2470.591,2022-11-16T08:58:14Z
2022-11-16T06:59:19Z,42.805,6.029,13.3073,4.60102,2470.577,2022-11-16T09:01:18Z
2022-11-16T07:02:22Z,42.805,6.029,13.3072,4.60115,2470.591,2022-11-16T09:04:21Z
2022-11-16T07:05:25Z,42.805,6.029,13.3065,4.60116,2470.553,2022-11-16T09:07:24Z
2022-11-16T07:08:28Z,42.805,6.029,13.3067,4.60099,2470.577,2022-11-16T09:10:27Z
2022-11-16T07:11:32Z,42.805,6.029,13.3063,4.60104,2470.577,2022-11-16T09:13:30Z
2022-11-16T07:14:35Z,42.805,6.029,13.3084,4.60117,2470.53,2022-11-16T09:16:33Z
2022-11-16T07:17:38Z,42.805,6.029,13.3073,4.60104,2470.544,2022-11-16T09:19:36Z
2022-11-16T07:20:41Z,42.805,6.029,13.3063,4.60098,2470.577,2022-11-16T09:22:39Z
2022-11-16T07:23:44Z,42.805,6.029,13.3063,4.60102,2470.577,2022-11-16T09:25:42Z
2022-11-16T07:26:47Z,42.805,6.029,13.3011,4.60117,2470.577,2022-11-16T09:28:45Z
2022-11-16T07:29:50Z,42.805,6.029,13.3021,4.60093,2470.567,2022-11-16T09:31:48Z
2022-11-16T07:32:53Z,42.805,6.029,13.3021,4.60110,2470.591,2022-11-16T09:34:51Z
2022-11-16T07:35:56Z,42.805,6.029,13.3046,4.60105,2470.553,2022-11-16T09:37:54Z
2022-11-16T07:38:59Z,42.805,6.029,13.3013,4.60119,2470.577,2022-11-16T09:40:58Z
2022-11-16T07:42:02Z,42.805,6.029,13.3009,4.60093,2470.577,2022-11-16T09:44:01Z
2022-11-16T07:45:05Z,42.805,6.029,13.3012,4.60087,2470.577,2022-11-16T09:47:04Z
2022-11-16T07:48:08Z,42.805,6.029,13.3074,4.60089,2470.6,2022-11-16T09:50:07Z
2022-11-16T07:51:12Z,42.805,6.029,13.3026,4.60105,2470.577,2022-11-16T09:53:10Z
2022-11-16T07:54:15Z,42.805,6.029,13.3015,4.60102,2470.6,2022-11-16T09:56:13Z
2022-11-16T07:57:18Z,42.805,6.029,13.3011,4.60084,2470.614,2022-11-16T09:59:16Z
2022-11-16T08:00:21Z,42.805,6.029,13.3013,4.60085,2470.553,2022-11-16T10:02:19Z
2022-11-16T08:03:24Z,42.805,6.029,13.3008,4.60081,2470.577,2022-11-16T10:05:22Z
2022-11-16T08:06:27Z,42.805,6.029,13.3011,4.60072,2470.6,2022-11-16T10:08:25Z
2022-11-16T08:09:30Z,42.805,6.029,13.3009,4.60078,2470.614,2022-11-16T10:11:28Z
2022-11-16T08:12:33Z,42.805,6.029,13.3014,4.60079,2470.591,2022-11-16T10:14:31Z
2022-11-16T08:15:36Z,42.805,6.029,13.3009,4.60074,2470.577,2022-11-16T10:17:34Z
2022-11-16T08:18:39Z,42.805,6.029,13.3012,4.60068,2470.624,2022-11-16T10:20:38Z
2022-11-16T08:21:42Z,42.805,6.029,13.3011,4.60068,2470.6,2022-11-16T10:23:41Z
2022-11-16T08:24:45Z,42.805,6.029,13.3011,4.60063,2470.6,2022-11-16T10:26:44Z
2022-11-16T08:27:49Z,42.805,6.029,13.3010,4.60066,2470.591,2022-11-16T10:29:47Z
2022-11-16T08:30:52Z,42.805,6.029,13.3009,4.60064,2470.624,2022-11-16T10:32:50Z
2022-11-16T08:33:55Z,42.805,6.029,13.3011,4.60064,2470.624,2022-11-16T10:35:53Z
2022-11-16T08:36:58Z,42.805,6.029,13.3009,4.60069,2470.6,2022-11-16T10:38:56Z
2022-11-16T08:40:01Z,42.805,6.029,13.3010,4.60069,2470.591,2022-11-16T10:41:59Z
2022-11-16T08:43:04Z,42.805,6.029,13.3006,4.60062,2470.577,2022-11-16T10:45:02Z
2022-11-16T08:46:07Z,42.805,6.029,13.3008,4.60063,2470.614,2022-11-16T10:48:05Z
2022-11-16T08:49:10Z,42.805,6.029,13.3008,4.60063,2470.624,2022-11-16T10:51:08Z
2022-11-16T08:52:13Z,42.805,6.029,13.3006,4.60062,2470.624,2022-11-16T10:54:11Z
2022-11-16T08:55:16Z,42.805,6.029,13.3009,4.60058,2470.6,2022-11-16T10:57:15Z
2022-11-16T08:58:19Z,42.805,6.029,13.3011,4.60062,2470.6,2022-11-16T11:00:18Z
2022-11-16T09:01:22Z,42.805,6.029,13.3009,4.60064,2470.577,2022-11-16T11:03:21Z
2022-11-16T09:04:26Z,42.805,6.029,13.3011,4.60063,2470.637,2022-11-16T11:06:24Z
2022-11-16T09:07:29Z,42.805,6.029,13.3011,4.60061,2470.6,2022-11-16T11:09:27Z
2022-11-16T09:10:32Z,42.805,6.029,13.3009,4.60061,2470.6,2022-11-16T11:12:30Z
2022-11-16T09:13:35Z,42.805,6.029,13.3011,4.60062,2470.6,2022-11-16T11:15:33Z
2022-11-16T09:16:38Z,42.805,6.029,13.3011,4.60062,2470.614,2022-11-16T11:18:36Z
2022-11-16T09:19:41Z,42.805,6.029,13.3008,4.60066,2470.624,2022-11-16T11:21:39Z
2022-11-16T09:22:44Z,42.805,6.029,13.3010,4.60060,2470.624,2022-11-16T11:24:42Z
2022-11-16T09:25:47Z,42.805,6.029,13.3010,4.60059,2470.637,2022-11-16T11:27:45Z
2022-11-16T09:28:50Z,42.805,6.029,13.3011,4.60060,2470.6,2022-11-16T11:30:48Z
2022-11-16T09:31:53Z,42.805,6.029,13.3011,4.60060,2470.6,2022-11-16T11:33:52Z
2022-11-16T09:34:56Z,42.805,6.029,13.3013,4.60064,2470.637,2022-11-16T11:36:55Z
2022-11-16T09:37:59Z,42.805,6.029,13.3009,4.60059,2470.624,2022-11-16T11:39:58Z
2022-11-16T09:41:03Z,42.805,6.029,13.3009,4.60062,2470.646,2022-11-16T11:43:01Z
2022-11-16T09:44:06Z,42.805,6.029,13.3014,4.60062,2470.646,2022-11-16T11:46:04Z
2022-11-16T09:47:09Z,42.805,6.029,13.3009,4.60070,2470.684,2022-11-16T11:49:07Z
2022-11-16T09:50:12Z,42.805,6.029,13.3010,4.60061,2470.624,2022-11-16T11:52:10Z
2022-11-16T09:53:15Z,42.805,6.029,13.3011,4.60061,2470.633,2022-11-16T11:55:13Z
2022-11-16T09:56:18Z,42.805,6.029,13.3009,4.60063,2470.646,2022-11-16T11:58:16Z
2022-11-16T09:59:21Z,42.805,6.029,13.3007,4.60063,2470.661,2022-11-16T12:01:19Z
2022-11-16T10:02:24Z,42.805,6.029,13.3008,4.60062,2470.646,2022-11-16T12:04:22Z
2022-11-16T10:05:27Z,42.805,6.029,13.3009,4.60064,2470.684,2022-11-16T12:07:25Z
2022-11-16T10:08:30Z,42.805,6.029,13.3009,4.60066,2470.646,2022-11-16T12:10:29Z
2022-11-16T10:11:33Z,42.805,6.029,13.3009,4.60062,2470.624,2022-11-16T12:13:32Z
2022-11-16T10:14:36Z,42.805,6.029,13.3010,4.60058,2470.624,2022-11-16T12:16:35Z
2022-11-16T10:17:40Z,42.805,6.029,13.3009,4.60064,2470.646,2022-11-16T12:19:38Z
2022-11-16T10:20:43Z,42.805,6.029,13.3009,4.60063,2470.67,2022-11-16T12:22:41Z
2022-11-16T10:23:46Z,42.805,6.029,13.3009,4.60062,2470.707,2022-11-16T12:25:44Z
2022-11-16T10:26:49Z,42.805,6.029,13.3011,4.60067,2470.67,2022-11-16T12:28:47Z
2022-11-16T10:29:52Z,42.805,6.029,13.3010,4.60071,2470.684,2022-11-16T12:31:50Z
2022-11-16T10:32:55Z,42.805,6.029,13.3009,4.60067,2470.693,2022-11-16T12:34:53Z
2022-11-16T10:35:58Z,42.805,6.029,13.3010,4.60063,2470.67,2022-11-16T12:37:56Z
2022-11-16T10:39:01Z,42.805,6.029,13.3009,4.60061,2470.67,2022-11-16T12:40:59Z
2022-11-16T10:42:04Z,42.805,6.029,13.3010,4.60067,2470.67,2022-11-16T12:44:02Z
2022-11-16T10:45:07Z,42.805,6.029,13.3011,4.60067,2470.693,2022-11-16T12:47:06Z
2022-11-16T10:48:10Z,42.805,6.029,13.3008,4.60067,2470.684,2022-11-16T12:50:09Z
2022-11-16T10:51:13Z,42.805,6.029,13.3010,4.60064,2470.693,2022-11-16T12:53:12Z
2022-11-16T10:54:17Z,42.805,6.029,13.3012,4.60067,2470.67,2022-11-16T12:56:15Z
2022-11-16T10:57:20Z,42.805,6.029,13.3014,4.60061,2470.624,2022-11-16T12:59:18Z
2022-11-16T11:00:23Z,42.805,6.029,13.3011,4.60057,2470.67,2022-11-16T13:02:21Z
2022-11-16T11:03:26Z,42.805,6.029,13.3011,4.60069,2470.67,2022-11-16T13:05:24Z
2022-11-16T11:06:29Z,42.805,6.029,13.3010,4.60063,2470.707,2022-11-16T13:08:27Z
2022-11-16T11:09:32Z,42.805,6.029,13.3013,4.60062,2470.67,2022-11-16T13:11:30Z
2022-11-16T11:12:35Z,42.805,6.029,13.3011,4.60064,2470.661,2022-11-16T13:14:33Z
2022-11-16T11:15:38Z,42.805,6.029,13.3014,4.60061,2470.646,2022-11-16T13:17:36Z
2022-11-16T11:18:41Z,42.805,6.029,13.3010,4.60057,2470.661,2022-11-16T13:20:39Z
2022-11-16T11:21:44Z,42.805,6.029,13.3009,4.60059,2470.693,2022-11-16T13:23:43Z
2022-11-16T11:24:47Z,42.805,6.029,13.3010,4.60058,2470.646,2022-11-16T13:26:46Z
2022-11-16T11:27:50Z,42.805,6.029,13.3013,4.60056,2470.67,2022-11-16T13:29:49Z
2022-11-16T11:30:54Z,42.805,6.029,13.3017,4.60057,2470.693,2022-11-16T13:32:52Z
2022-11-16T11:33:57Z,42.805,6.029,13.3010,4.60060,2470.684,2022-11-16T13:35:55Z
2022-11-16T11:37:00Z,42.805,6.029,13.3015,4.60058,2470.67,2022-11-16T13:38:58Z
2022-11-16T11:40:03Z,42.805,6.029,13.3008,4.60062,2470.684,2022-11-16T13:42:01Z
2022-11-16T11:43:06Z,42.805,6.029,13.3016,4.60057,2470.693,2022-11-16T13:45:04Z
2022-11-16T11:46:09Z,42.805,6.029,13.3009,4.60069,2470.67,2022-11-16T13:48:07Z
2022-11-16T11:49:12Z,42.805,6.029,13.3013,4.60068,2470.707,2022-11-16T13:51:10Z
2022-11-16T11:52:15Z,42.805,6.029,13.3020,4.60059,2470.73,2022-11-16T13:54:13Z
2022-11-16T11:55:18Z,42.805,6.029,13.3012,4.60067,2470.693,2022-11-16T13:57:16Z
2022-11-16T11:58:21Z,42.805,6.029,13.3009,4.60057,2470.73,2022-11-16T14:00:20Z
2022-11-16T12:01:24Z,42.805,6.029,13.3011,4.60056,2470.693,2022-11-16T14:03:23Z
2022-11-16T12:04:27Z,42.805,6.029,13.3013,4.60057,2470.73,2022-11-16T14:06:26Z
2022-11-16T12:07:31Z,42.805,6.029,13.3009,4.60062,2470.707,2022-11-16T14:09:29Z
2022-11-16T12:10:34Z,42.805,6.029,13.3011,4.60057,2470.693,2022-11-16T14:12:32Z
2022-11-16T12:13:37Z,42.805,6.029,13.3014,4.60060,2470.717,2022-11-16T14:15:35Z
2022-11-16T12:16:40Z,42.805,6.029,13.3012,4.60062,2470.693,2022-11-16T14:18:38Z
2022-11-16T12:19:43Z,42.805,6.029,13.3014,4.60057,2470.684,2022-11-16T14:21:41Z
2022-11-16T12:22:46Z,42.805,6.029,13.3011,4.60061,2470.73,2022-11-16T14:24:44Z
2022-11-16T12:25:49Z,42.805,6.029,13.3012,4.60056,2470.646,2022-11-16T14:27:47Z
2022-11-16T12:28:52Z,42.805,6.029,13.3012,4.60057,2470.67,2022-11-16T14:30:50Z
2022-11-16T12:31:55Z,42.805,6.029,13.3012,4.60058,2470.67,2022-11-16T14:33:53Z
2022-11-16T12:34:58Z,42.805,6.029,13.3008,4.60061,2470.693,2022-11-16T14:36:57Z
2022-11-16T12:38:01Z,42.805,6.029,13.3011,4.60056,2470.707,2022-11-16T14:40:00Z
2022-11-16T12:41:04Z,42.805,6.029,13.3008,4.60057,2470.693,2022-11-16T14:43:03Z
2022-11-16T12:44:08Z,42.805,6.029,13.3014,4.60054,2470.684,2022-11-16T14:46:06Z
2022-11-16T12:47:11Z,42.805,6.029,13.3009,4.60058,2470.693,2022-11-16T14:49:09Z
2022-11-16T12:50:14Z,42.805,6.029,13.3009,4.60061,2470.67,2022-11-16T14:52:12Z
2022-11-16T12:53:17Z,42.805,6.029,13.3009,4.60077,2470.646,2022-11-16T14:55:15Z
2022-11-16T12:56:20Z,42.805,6.029,13.3009,4.60057,2470.67,2022-11-16T14:58:18Z
2022-11-16T12:59:23Z,42.805,6.029,13.3009,4.60055,2470.693,2022-11-16T15:01:21Z
2022-11-16T13:02:26Z,42.805,6.029,13.3009,4.60057,2470.67,2022-11-16T15:04:24Z
2022-11-16T13:05:29Z,42.805,6.029,13.3009,4.60074,2470.661,2022-11-16T15:07:27Z
2022-11-16T13:08:32Z,42.805,6.029,13.3009,4.60077,2470.693,2022-11-16T15:10:30Z
2022-11-16T13:11:35Z,42.805,6.029,13.3011,4.60057,2470.717,2022-11-16T15:13:34Z
2022-11-16T13:14:38Z,42.805,6.029,13.3013,4.60063,2470.661,2022-11-16T15:16:37Z
2022-11-16T13:17:41Z,42.805,6.029,13.3011,4.60065,2470.693,2022-11-16T15:19:40Z
2022-11-16T13:20:45Z,42.805,6.029,13.3009,4.60057,2470.67,2022-11-16T15:22:43Z
2022-11-16T13:23:48Z,42.805,6.029,13.3013,4.60057,2470.646,2022-11-16T15:25:46Z
2022-11-16T13:26:51Z,42.805,6.029,13.3007,4.60062,2470.707,2022-11-16T15:28:49Z
2022-11-16T13:29:54Z,42.805,6.029,13.3010,4.60060,2470.646,2022-11-16T15:31:52Z
2022-11-16T13:32:57Z,42.805,6.029,13.3011,4.60078,2470.646,2022-11-16T15:34:55Z
2022-11-16T13:36:00Z,42.805,6.029,13.3013,4.60081,2470.707,2022-11-16T15:37:58Z
2022-11-16T13:39:03Z,42.805,6.029,13.3009,4.60105,2470.73,2022-11-16T15:41:01Z
2022-11-16T13:42:06Z,42.805,6.029,13.3011,4.60061,2470.717,2022-11-16T15:44:04Z
2022-11-16T13:45:09Z,42.805,6.029,13.3008,4.60060,2470.646,2022-11-16T15:47:07Z
2022-11-16T13:48:12Z,42.805,6.029,13.3009,4.60062,2470.684,2022-11-16T15:50:11Z
2022-11-16T13:51:15Z,42.805,6.029,13.3010,4.60063,2470.707,2022-11-16T15:53:14Z
2022-11-16T13:54:18Z,42.805,6.029,13.3009,4.60097,2470.67,2022-11-16T15:56:17Z
2022-11-16T13:57:22Z,42.805,6.029,13.3008,4.60069,2470.67,2022-11-16T15:59:20Z
2022-11-16T14:00:25Z,42.805,6.029,13.3010,4.60070,2470.717,2022-11-16T16:02:23Z
2022-11-16T14:03:28Z,42.805,6.029,13.3014,4.60173,2470.707,2022-11-16T16:05:26Z
2022-11-16T14:06:31Z,42.805,6.029,13.3014,4.60095,2470.693,2022-11-16T16:08:29Z
2022-11-16T14:09:34Z,42.805,6.029,13.3011,4.60127,2470.684,2022-11-16T16:11:32Z
2022-11-16T14:12:37Z,42.805,6.029,13.3012,4.60099,2470.67,2022-11-16T16:14:35Z
2022-11-16T14:15:40Z,42.805,6.029,13.3040,4.60067,2470.67,2022-11-16T16:17:38Z
2022-11-16T14:18:43Z,42.805,6.029,13.3031,4.60089,2470.684,2022-11-16T16:20:41Z
2022-11-16T14:21:46Z,42.805,6.029,13.3021,4.60081,2470.646,2022-11-16T16:23:44Z
2022-11-16T14:24:49Z,42.805,6.029,13.3028,4.60064,2470.693,2022-11-16T16:26:48Z
2022-11-16T14:27:52Z,42.805,6.029,13.3036,4.60069,2470.67,2022-11-16T16:29:51Z
2022-11-16T14:30:55Z,42.805,6.029,13.3059,4.60062,2470.693,2022-11-16T16:32:54Z
2022-11-16T14:33:59Z,42.805,6.029,13.3047,4.60096,2470.646,2022-11-16T16:35:57Z
2022-11-16T14:37:02Z,42.805,6.029,13.3052,4.60127,2470.67,2022-11-16T16:39:00Z
2022-11-16T14:40:05Z,42.805,6.029,13.3049,4.60113,2470.67,2022-11-16T16:42:03Z
2022-11-16T14:43:08Z,42.805,6.029,13.3046,4.60101,2470.693,2022-11-16T16:45:06Z
2022-11-16T14:46:11Z,42.805,6.029,13.3046,4.60130,2470.67,2022-11-16T16:48:09Z
2022-11-16T14:49:14Z,42.805,6.029,13.3047,4.60128,2470.684,2022-11-16T16:51:12Z
2022-11-16T14:52:17Z,42.805,6.029,13.3044,4.60093,2470.707,2022-11-16T16:54:15Z
2022-11-16T14:55:20Z,42.805,6.029,13.3043,4.60084,2470.717,2022-11-16T16:57:18Z
2022-11-16T14:58:23Z,42.805,6.029,13.3039,4.60126,2470.661,2022-11-16T17:00:21Z
2022-11-16T15:01:26Z,42.805,6.029,13.3056,4.60102,2470.684,2022-11-16T17:03:25Z